Tracking 22882 objects as of 18-Apr-2021
HD Live streaming from Space Station
objects crossing your sky now

SL-14 R/B

Track SL-14 R/B now!
10-day predictions
SL-14 R/B is classified as:


NORAD ID: 18749
Int'l Code: 1988-001B
Perigee: 612.8 km
Apogee: 639.7 km
Inclination: 82.5 °
Period: 97.1 minutes
Semi major axis: 6997 km
RCS: 4.583 m2 (large)
Launch date: January 6, 1988
Source: Commonwealth of Independent States (former USSR) (CIS)
Launch site: PLESETSK MISSILE AND SPACE COMPLEX (PKMTR)

Note: This is a ROCKET BODY
aabbcc
Your satellite tracking list
Your tracking list is empty




NASA's NSSDC Master Catalog

Two Line Element Set (TLE):
1 18749U 88001B   21108.42562927  .00000097  00000-0  89605-5 0  9994
2 18749  82.5138  71.8339 0019221  17.8628 100.8316 14.83254353777071
Source of the keplerian elements: AFSPC